Location: Kailua
(21.4020°N, 157.7390°W)
Time: 11:33:19
(UTC-10:00)

Cosmos 2221 Rocket - Visible Passes

Search period start: 22 July 2014 00:00
Search period end: 01 August 2014 00:00
Orbit: 621 x 651 km, 82.5° (Epoch: 21 July)

Date Brightness Start Highest point End Pass type
(mag) Time Alt. Az. Time Alt. Az. Time Alt. Az.
24 Jul 6.6 05:01:11 10° ESE 05:03:36 15° E 05:06:01 10° NE visible
25 Jul 5.3 05:22:02 10° SSE 05:26:05 36° E 05:30:06 10° NNE visible
27 Jul 6.7 04:32:02 10° ESE 04:33:29 11° E 04:34:55 10° ENE visible
28 Jul 5.6 04:52:08 10° SSE 04:55:56 29° E 04:59:43 10° NNE visible
29 Jul 3.8 05:14:05 10° S 05:18:29 76° E 05:22:52 10° N visible
30 Jul 4.1 05:36:58 10° SSW 05:41:06 40° W 05:45:15 10° NNW visible
31 Jul 5.9 04:22:20 10° SE 04:25:48 23° E 04:29:15 10° NE visible
